User: anonymous   Login
Location: ????????
(55.6333°N, 37.7000°E)
Time: 12:04:23
(UTC+00:00)
Language:

Ariane Rocket - Orbit

View from above orbital plane
View from above orbital plane
View from above satellite
View from above satellite

Ground track
Ground track

The orbit data is extracted from the following two-line orbital elements,

1 23561U 95021B   25188.83558049  .00000197  00000-0  77219-4 0  9997
2 23561  98.4828 258.1753 0007463 147.4289 329.4312 14.39545645584012
Epoch (UTC): 07 July 2025 20:03:14
Eccentricity: 0.0007463
inclination: 98.4828°
perigee height: 754 km
apogee height: 765 km
right ascension of ascending node: 258.1753°
argument of perigee: 147.4289°
revolutions per day: 14.39545645
mean anomaly at epoch: 329.4312°
orbit number at epoch: 58401

The dashed part of the orbit path shows where the satellite is in the earth's shadow,  

DLR